Lapse_Rate
8.3 8.6 9.4 9.6 9.6 9.6 9.7 9.5 9.7 9.7 9.6 9.1 9.7 9.6 9.7 9.6 9.5 9.4 8.5 7.8 7.5 7.1 7.0 7.5 7.7 7.7 7.5 7.4 7.3 7.4 7.3 6.7 6.3 6.1 6.1 6.1 5.5 5.0 5.2 5.1 5.1 5.2 5.0 5.1
8.5 8.4 9.4 9.6 9.5 9.6 9.5 9.6 9.7 9.7 9.2 9.2 9.6 9.6 9.6 9.7 9.6 9.5 9.3 8.4 7.7 7.5 7.2 6.9 7.8 7.8 7.7 7.6 7.4 7.3 7.4 7.3 6.5 6.3 6.2 6.4 6.1 6.3 5.9 5.8 5.4 5.4 5.3 5.5
8.6 9.5 9.4 9.0 9.1 9.1 9.6 9.6 9.7 9.7 9.7 9.2 9.7 9.7 9.6 9.5 9.3 9.0 9.0 8.9 8.2 8.0 7.6 7.1 7.7 7.7 7.6 7.8 7.6 7.5 7.7 7.5 6.9 6.5 6.6 6.8 6.4 6.4 6.3 6.0 5.8 5.7 5.8 5.8
8.7 9.3 8.6 8.6 8.7 9.1 9.6 9.6 9.7 9.7 9.7 9.7 9.6 9.8 9.6 9.6 9.6 9.6 9.5 9.0 8.7 8.1 7.9 7.1 7.6 7.7 7.7 7.7 7.6 7.4 7.5 7.6 7.2 6.8 6.6 6.5 6.7 6.6 6.4 6.1 6.2 5.9 5.8 6.0
8.7 8.7 8.4 8.6 8.8 9.1 9.5 9.7 9.7 9.6 9.6 9.7 9.7 9.7 9.6 9.4 9.6 9.6 9.5 8.8 8.8 8.2 7.8 7.4 7.2 7.7 7.8 7.7 7.7 7.7 7.5 7.6 7.3 7.1 6.7 6.4 6.4 6.7 6.6 6.5 6.7 6.2 6.1 6.0
8.9 8.4 8.5 8.7 8.8 8.9 9.6 9.1 9.4 9.5 9.6 9.8 9.7 9.7 9.7 9.6 9.6 9.5 9.0 8.6 8.4 8.3 7.9 7.7 7.4 7.8 7.9 7.9 8.0 7.8 7.6 7.7 7.5 7.1 7.0 6.6 6.4 6.5 6.7 6.6 6.3 6.2 6.1 6.0
8.6 8.4 8.5 8.6 8.7 8.7 9.0 9.5 9.7 9.8 9.9 9.9 9.5 9.6 9.7 9.4 9.0 9.0 8.7 8.6 8.4 8.4 8.1 7.8 7.9 8.0 8.1 8.0 7.9 7.8 7.8 7.7 7.7 7.3 7.2 6.9 6.4 6.6 6.7 6.5 6.5 6.2 6.1 6.1
9.4 9.4 8.6 8.5 8.7 9.5 8.8 9.6 9.7 9.5 9.8 9.8 9.1 9.6 9.7 9.1 8.7 8.5 8.4 8.7 8.3 8.3 8.2 7.9 8.3 7.9 8.0 8.0 7.9 7.8 7.6 7.5 7.5 7.5 7.3 6.7 6.4 6.2 6.4 6.4 6.3 6.1 6.1 6.1
9.7 9.6 9.6 9.0 8.8 9.4 9.6 9.1 9.6 9.7 9.7 9.7 9.7 9.6 9.5 9.0 9.1 8.6 8.4 8.4 8.2 8.3 8.2 7.9 8.3 7.9 8.1 8.0 8.0 8.0 7.6 7.4 7.5 7.5 7.0 6.5 6.1 5.7 6.0 6.3 6.1 6.0 6.1 5.9
9.6 9.5 9.6 9.3 8.9 9.0 9.3 9.6 9.7 9.6 9.7 9.6 9.8 9.7 9.6 9.2 9.6 8.3 8.2 8.1 8.0 8.1 8.3 8.6 8.4 8.0 8.2 8.0 7.8 7.9 7.5 7.4 7.8 7.5 7.0 6.2 5.6 5.6 6.1 5.9 6.2 6.3 6.0 5.9
8.9 8.8 9.6 9.6 8.6 9.3 9.0 9.2 9.6 9.6 9.9 9.8 10.0 9.8 9.5 9.4 9.4 8.7 8.1 8.0 8.1 8.0 7.6 8.5 8.0 7.4 7.6 7.7 7.7 7.7 7.4 7.3 7.5 7.4 6.9 5.2 5.5 5.4 5.9 6.3 6.4 6.2 6.1 5.9
8.8 9.2 9.5 9.6 9.4 9.1 9.6 9.6 9.6 9.6 9.7 9.6 9.4 9.6 9.6 9.2 8.6 8.4 8.0 8.8 8.7 8.5 7.9 8.5 7.7 7.1 7.2 7.0 7.7 7.7 7.3 7.3 7.3 7.5 7.0 6.8 5.5 6.0 6.0 6.6 6.4 6.2 6.0 5.7
9.0 8.9 9.5 9.4 9.7 9.2 9.0 9.4 9.7 9.7 9.6 9.6 9.7 9.7 9.1 8.8 8.5 8.3 8.7 9.0 9.0 8.8 8.5 8.4 8.0 7.9 7.0 6.8 8.0 7.6 7.6 7.5 7.4 7.2 7.2 6.5 6.1 6.3 6.4 6.3 6.2 6.0 5.9 5.8
8.6 9.5 9.1 9.6 9.6 9.7 9.5 9.0 9.5 9.6 9.6 9.6 9.6 9.1 9.1 9.2 8.7 9.0 8.9 9.0 9.1 8.8 8.7 8.6 8.2 7.8 6.7 7.8 7.6 7.5 7.7 7.5 7.4 7.2 6.8 6.8 6.7 6.2 6.1 6.0 6.0 6.0 6.0 5.8
8.7 8.6 8.8 8.9 9.4 9.6 9.6 9.6 9.5 9.6 9.3 9.6 9.5 9.5 9.2 8.9 8.7 9.0 9.0 9.0 9.0 8.8 8.7 8.5 8.2 7.9 7.8 7.8 7.3 7.2 7.7 7.5 7.3 7.0 6.8 6.7 6.5 6.3 6.1 6.2 6.1 5.8 5.7 5.7
8.6 8.6 8.8 9.0 9.2 9.6 9.7 9.6 9.6 9.6 9.5 9.6 9.4 8.8 8.3 8.6 9.1 9.0 9.0 9.1 8.9 8.5 8.5 8.4 8.2 8.0 7.4 7.5 7.2 7.2 7.4 7.5 7.2 7.0 6.7 6.5 6.3 6.1 6.1 6.0 5.8 5.7 5.7 5.6
8.8 8.9 8.7 8.9 9.5 9.6 9.7 9.6 9.6 9.6 9.6 9.4 9.6 8.4 8.0 7.9 9.2 9.1 9.0 8.8 8.5 8.3 8.3 8.3 8.3 8.0 7.2 7.3 7.2 7.2 7.3 7.2 7.1 6.9 6.6 6.4 6.0 5.8 5.4 5.4 5.4 5.3 5.5 5.6
8.6 8.5 8.9 9.2 9.5 9.9 9.6 9.7 9.6 9.6 9.6 9.6 8.8 9.0 8.7 8.8 9.3 9.2 8.8 8.7 8.5 8.3 8.3 8.3 8.2 8.0 7.6 7.3 7.4 7.4 7.3 7.2 7.0 6.8 6.4 6.4 5.7 5.3 5.2 5.1 4.9 5.2 5.2 5.4
8.5 8.6 9.2 9.4 9.6 9.7 9.6 9.4 9.6 9.7 9.7 9.5 8.7 8.4 8.9 9.2 9.1 9.0 8.6 8.6 8.4 8.2 8.3 8.3 8.1 8.0 7.8 7.6 7.4 7.4 7.6 7.6 7.1 7.0 6.5 6.5 6.4 5.9 5.8 5.4 5.3 5.1 5.0 4.7
8.6 8.4 8.8 9.4 9.5 9.9 9.6 9.5 9.3 9.6 9.5 8.8 8.7 8.5 8.7 9.2 9.2 8.5 8.6 8.2 8.2 8.2 8.3 8.2 7.9 7.7 7.7 7.6 7.4 7.2 7.3 7.5 7.2 7.1 6.8 6.5 6.4 6.3 6.0 5.6 5.5 5.3 5.3 4.9
8.8 8.7 8.9 9.3 9.4 8.9 8.4 8.1 8.5 9.3 8.7 8.0 8.3 8.2 8.4 8.8 8.5 7.6 8.3 8.2 8.1 8.3 8.3 8.1 7.8 7.6 7.6 7.3 7.2 7.1 7.2 7.2 7.1 7.0 6.8 6.6 6.3 6.3 6.5 6.1 5.8 5.8 5.5 5.4
9.2 9.2 9.4 9.4 8.7 8.7 7.8 7.9 8.4 8.2 8.1 8.0 8.4 8.2 8.4 8.7 8.4 8.1 8.1 8.0 7.9 8.0 8.2 8.0 7.6 7.4 7.6 7.3 7.1 7.0 7.0 7.1 6.8 6.7 6.7 6.6 6.4 6.2 6.3 6.1 6.0 6.0 5.9 5.9
8.9 8.3 8.2 8.2 7.2 6.4 7.2 8.0 8.5 8.3 7.4 8.0 8.0 8.5 8.5 8.4 8.3 8.1 8.0 7.9 7.8 7.8 7.9 7.8 7.6 7.5 7.5 7.5 7.4 7.3 7.2 7.1 7.1 7.0 6.7 6.6 6.5 6.4 6.4 6.3 6.0 6.0 6.2 6.1
8.5 8.7 8.6 8.3 7.8 7.3 7.6 8.6 8.9 8.4 8.4 8.3 8.0 8.2 7.8 8.1 8.0 8.0 8.1 7.9 7.8 7.7 7.8 7.8 7.5 7.5 7.4 7.5 7.5 7.4 7.4 7.4 7.5 7.4 7.2 6.7 6.5 6.5 6.4 6.4 6.2 6.1 6.2 5.9
7.4 8.2 8.4 8.3 7.9 8.1 8.0 8.4 8.4 8.3 8.1 8.1 8.2 8.1 8.2 8.2 8.1 8.0 7.8 7.8 7.7 7.6 7.4 7.3 7.2 7.3 7.4 7.5 7.5 7.5 7.6 7.5 7.4 7.4 7.3 7.0 6.8 6.5 6.5 6.5 6.3 6.2 6.1 6.0
8.1 7.4 8.2 8.0 7.7 7.8 7.7 8.1 8.2 8.3 7.9 7.9 8.0 8.1 8.0 8.0 8.0 8.0 7.8 7.6 7.4 7.3 7.2 7.3 7.3 7.5 7.5 7.6 7.6 7.4 7.3 7.2 7.2 7.1 7.1 6.8 6.8 6.8 6.6 6.6 6.5 6.5 6.4 6.3
Wind_Speed
14 13 17 21 18 21 14 11 8 2 5 9 12 12 8 13 7 10 13 15 14 15 15 14 13 11 11 10 9 9 9 6 4 5 5 3 2 2 2 2 8 9 9 19
7 15 19 20 11 10 10 10 10 6 2 9 7 10 10 2 7 7 12 15 16 16 15 14 13 12 11 11 9 8 7 8 5 4 2 3 2 4 6 4 7 10 10 10
14 10 19 6 10 11 14 15 12 9 8 11 8 12 9 9 6 6 8 12 16 17 18 15 15 13 12 10 10 9 9 8 6 3 3 4 5 3 6 5 5 4 5 7
12 13 5 9 15 15 16 16 15 5 9 13 8 7 12 13 11 11 9 11 12 17 16 16 14 13 11 10 9 10 11 10 8 7 3 4 5 4 3 1 1 3 4 4
14 13 10 14 17 14 16 4 8 12 13 15 9 7 6 7 7 7 2 0 11 17 16 16 15 13 11 10 9 10 11 9 8 8 6 6 6 5 5 5 4 3 3 2
19 3 13 17 15 11 14 7 7 10 13 13 12 11 7 3 8 4 8 4 10 15 15 15 13 13 11 10 10 10 11 9 9 8 7 7 5 1 2 1 4 2 2 3
14 12 12 12 7 13 11 13 9 11 12 12 4 3 8 6 8 4 5 7 9 13 14 13 15 14 13 12 11 11 11 10 10 9 9 7 4 5 5 4 0 5 2 3
12 14 17 13 18 12 15 17 11 12 8 5 8 5 4 9 6 5 7 8 12 11 12 14 15 14 14 13 12 11 11 10 11 11 9 6 7 6 4 1 3 5 4 4
6 15 17 16 15 17 16 16 18 11 11 9 8 11 10 8 8 5 10 10 10 10 11 13 14 14 14 13 12 11 11 10 10 11 9 7 6 4 7 5 2 3 3 4
9 10 11 14 9 9 13 7 12 8 11 12 8 2 8 9 10 10 10 9 9 9 10 11 13 14 12 12 11 10 11 10 10 9 6 3 3 3 5 4 3 5 5 3
16 8 11 11 13 15 11 12 10 15 7 6 6 6 13 9 12 11 8 8 9 9 9 9 11 13 13 12 10 9 9 9 6 12 10 8 4 5 2 5 5 5 5 1
18 8 13 13 15 20 19 16 16 10 12 7 11 1 9 11 8 10 9 7 4 4 6 9 10 12 11 11 12 9 8 7 8 11 9 7 4 9 7 6 6 5 4 3
14 10 12 16 10 8 12 16 10 12 11 12 7 6 10 10 11 8 10 7 5 4 6 7 9 9 10 11 12 10 9 8 9 10 8 9 7 8 8 7 6 6 6 5
7 12 13 12 15 13 18 18 18 16 13 11 13 11 5 8 12 9 9 7 7 5 6 8 9 10 9 12 12 9 10 11 11 11 9 7 10 8 7 6 6 6 6 6
9 12 16 19 18 14 10 15 18 17 18 17 2 15 4 9 11 10 8 7 6 5 6 8 8 10 12 11 12 12 11 12 12 10 9 9 6 7 8 8 7 6 6 5
16 13 15 18 18 19 13 15 7 14 19 22 8 14 4 10 9 8 7 6 5 4 4 5 7 10 14 11 11 11 13 13 12 12 11 6 5 7 7 6 7 6 5 5
12 13 14 17 18 19 18 16 14 11 11 11 11 20 15 14 9 7 6 5 4 3 3 4 6 9 11 11 10 10 11 12 12 11 10 10 7 9 8 6 6 7 6 5
10 12 12 14 16 22 12 19 19 15 15 12 12 11 7 7 9 9 3 5 4 4 1 3 5 8 10 11 11 10 11 11 9 9 9 10 7 5 4 5 4 4 5 4
13 10 12 13 16 13 8 6 12 13 14 10 16 13 14 13 12 9 8 5 4 4 4 3 7 3 10 10 10 11 12 12 11 10 9 9 9 7 7 6 7 5 4 4
11 11 12 12 19 16 15 15 9 11 8 6 2 10 11 12 6 8 9 8 4 3 2 1 4 5 8 9 10 10 10 11 12 10 9 10 9 8 9 8 7 7 6 4
11 10 15 14 12 6 9 10 5 14 4 4 7 10 11 6 6 10 9 8 6 4 2 2 3 3 7 8 9 9 9 10 10 9 10 10 10 9 10 9 3 5 7 6
13 12 13 15 5 6 2 5 8 6 4 6 9 6 10 11 8 6 8 7 5 6 5 4 3 5 7 3 7 8 8 5 4 4 6 8 8 8 9 10 9 10 8 10
4 5 3 8 6 4 8 12 9 5 5 4 7 7 9 10 9 7 6 5 5 5 5 6 7 6 4 5 5 5 4 3 4 5 6 8 6 8 8 9 10 9 8 7
4 3 1 5 8 7 7 11 11 7 6 4 4 6 7 8 6 6 6 4 5 4 3 3 8 5 4 4 3 3 4 4 5 5 4 2 3 1 2 4 4 5 8 7
7 4 3 0 4 3 12 12 8 9 6 5 6 3 5 8 8 6 7 6 4 4 3 4 5 4 4 4 5 3 2 1 3 4 5 5 4 1 3 3 2 1 1 5
7 5 1 4 7 5 8 6 3 5 5 5 7 8 7 9 10 8 7 7 5 5 3 4 5 4 4 3 3 2 3 2 3 4 5 5 4 3 3 3 3 13 7 9
Wind_Direction
202 227 228 236 232 264 321 226 4 55 83 261 265 245 246 153 197 197 185 188 193 189 181 176 183 186 186 183 188 188 167 189 209 254 123 176 211 281 301 248 255 269 217 198
222 230 241 234 309 261 275 274 258 226 212 285 261 241 224 138 197 219 187 189 199 191 176 175 177 186 194 184 183 185 182 180 205 234 65 18 162 205 237 230 235 241 239 206
243 243 218 240 233 253 249 261 257 256 173 244 274 252 185 206 210 195 274 192 192 208 174 181 178 188 192 188 183 173 163 188 198 205 141 127 141 235 222 221 224 224 250 239
245 246 233 236 241 227 254 244 257 254 248 260 202 284 189 191 189 187 233 204 198 194 183 171 178 188 196 182 174 164 168 190 167 173 171 178 179 199 166 240 189 201 225 267
224 236 202 232 228 237 251 289 222 240 262 269 252 240 111 176 231 182 102 270 176 178 184 171 178 177 185 170 171 162 171 187 159 168 188 190 230 180 206 159 190 219 208 300
265 216 227 233 232 243 244 248 244 253 254 257 227 264 275 306 114 132 109 143 158 169 178 171 166 154 171 163 171 162 165 174 164 180 180 220 207 312 110 199 256 274 309 106
217 214 232 246 211 219 230 221 221 220 226 242 71 251 289 94 77 25 93 156 164 157 164 163 157 170 168 167 169 168 172 177 174 186 182 196 213 213 185 212 61 346 309 16
213 203 209 184 234 193 219 238 248 259 266 255 148 228 205 79 110 130 175 181 143 155 160 167 166 174 171 167 171 176 169 177 179 187 182 179 187 198 179 140 14 349 8 32
238 242 187 204 211 250 193 228 257 294 277 284 286 157 150 156 132 140 127 149 140 135 148 157 168 172 169 170 171 170 163 176 184 182 185 193 191 212 74 96 189 119 4 56
269 273 176 182 242 231 272 221 234 235 273 265 276 131 109 163 165 129 137 135 138 149 146 163 170 170 165 166 164 157 161 178 183 186 203 224 171 123 111 114 65 69 73 41
236 239 199 176 203 218 207 246 246 275 301 300 243 233 116 111 121 125 134 142 156 151 156 165 174 161 171 153 151 145 152 172 170 84 77 17 22 43 121 151 107 86 83 138
227 226 253 203 224 223 245 217 232 244 232 263 295 69 152 111 119 138 124 138 135 158 154 162 171 161 164 153 145 132 126 122 122 127 125 142 165 237 146 142 111 105 95 103
219 230 240 251 179 220 250 249 254 244 256 276 271 265 134 126 128 129 138 143 148 149 139 154 160 177 166 121 111 134 139 141 145 149 162 171 201 176 151 135 125 116 120 93
290 238 239 245 228 240 196 235 244 240 250 234 240 132 140 154 142 143 145 154 150 151 149 157 168 179 156 131 127 151 156 150 151 167 172 171 232 134 151 140 142 138 128 122
240 245 248 257 272 288 276 202 223 230 243 239 36 12 124 158 138 141 147 150 161 168 170 152 176 184 130 150 151 161 150 143 156 168 178 195 155 159 152 159 154 147 144 134
223 235 251 256 253 261 248 253 253 214 229 237 213 151 286 321 94 124 144 163 172 161 130 159 181 190 144 165 169 159 157 166 165 174 172 185 148 147 159 175 157 157 149 150
228 236 239 247 242 247 237 247 212 225 233 257 239 132 172 210 121 135 148 153 142 122 132 152 178 188 147 171 164 166 164 168 176 179 174 168 188 164 167 216 171 166 169 162
253 232 250 246 242 240 236 231 234 211 214 201 119 123 128 130 117 109 98 131 114 55 46 156 175 174 164 161 166 165 169 173 183 180 169 166 181 179 176 185 195 175 166 168
241 248 231 247 241 231 196 249 236 228 218 208 120 133 142 136 132 134 125 61 60 45 43 334 335 263 171 156 166 171 175 185 193 177 176 183 185 193 175 175 183 154 166 178
228 236 260 229 250 235 243 174 196 221 222 106 150 147 156 152 216 155 136 129 103 84 75 267 262 240 160 163 172 178 185 187 197 198 188 176 187 200 192 181 188 179 175 188
222 229 227 237 230 151 6 9 266 205 126 135 166 163 151 144 48 115 116 101 80 82 93 81 305 200 152 166 175 187 179 194 202 202 181 184 187 191 210 183 138 175 203 184
201 219 233 232 326 137 83 191 302 71 99 118 116 134 131 101 118 116 93 108 114 103 96 98 108 66 26 186 194 188 193 139 137 156 181 192 190 201 199 189 192 201 219 178
262 2 335 19 87 284 39 76 83 8 81 66 109 113 125 146 149 129 116 118 111 77 101 135 111 89 58 14 320 194 97 156 189 182 201 221 205 212 207 199 189 196 209 199
169 348 8 192 82 85 80 83 79 54 55 49 89 120 145 141 135 144 118 118 110 124 98 83 116 88 82 73 74 86 166 157 204 200 181 172 176 3 12 306 272 213 188 209
56 280 79 130 84 67 65 49 51 68 55 69 86 74 100 122 131 127 123 104 117 104 103 78 80 106 113 111 105 109 111 231 234 210 206 212 213 170 97 68 355 314 165 183
253 54 3 47 22 343 63 44 42 98 86 78 93 92 98 105 113 109 109 117 121 112 124 107 108 113 124 131 130 141 150 175 231 235 239 228 209 160 134 131 94 37 37 106